Weather History for KHYR - July, 2013

Change the Weather History Date:

Wednesday, July 17, 2013

  Actual Average Record
Temperature  
Mean Temperature 76 °F -  
Max Temperature 91 °F - - ()
Min Temperature 62 °F - - ()
Cooling Degree Days 12    
Growing Degree Days 26 (Base 50)    
Moisture  
Dew Point 66 °F    
Average Humidity 76    
Maximum Humidity 100    
Minimum Humidity 42    
Precipitation  
Precipitation 0.00 in - - ()
Sea Level Pressure  
Sea Level Pressure 30.20 in    
Wind  
Wind Speed 1 mph (SW)    
Max Wind Speed 9 mph    
Max Gust Speed 16 mph    
Visibility 7 miles    
Events      
T = Trace of Precipitation, MM = Missing Value Source: NWS Daily Summary

Daily Weather History Graph

Daily Weather History Graph

Search for Another Location

Airport or City:

Trip Planner

Search our weather history database for the weather conditions in past years. The results will help you decide how hot, cold, wet, or windy it might be!

Date:

Astronomy

Jul. 17, 2013 Rise Set
Actual Time 5:31 AM CDT 8:51 PM CDT
Civil Twilight 4:55 AM CDT 9:28 PM CDT
Nautical Twilight 4:07 AM CDT 10:15 PM CDT
Astronomical Twilight 3:06 AM CDT 11:15 PM CDT
Moon 3:36 PM CDT (7/17) 12:45 AM CDT (7/17)
Length of Visible Light 16h 32m
Length of Day
15h 19m
Waxing Gibbous, 67% of the Moon is Illuminated
Jul 17
Waxing Gibbous
Jul 22
Full
Jul 29
Last Quarter
Aug 6
New
Aug 14
First Quarter

Hourly Weather History & Observations

Time (CDT) Temp. Heat Index Dew Point Humidity Pressure Visibility Wind Dir Wind Speed Gust Speed Precip Events Conditions
12:53 AM 69.1 °F - 66.9 °F 93% 30.21 in 9.0 mi Calm Calm - N/A   Clear
1:53 AM 68.0 °F - 66.0 °F 93% 30.22 in 9.0 mi Calm Calm - N/A   Clear
2:53 AM 68.0 °F - 66.0 °F 93% 30.21 in 7.0 mi Calm Calm - N/A   Clear
3:53 AM 66.9 °F - 66.0 °F 97% 30.22 in 7.0 mi Calm Calm - N/A   Clear
4:36 AM 66.2 °F - 64.4 °F 94% 30.24 in 2.5 mi Calm Calm - 0.00 in   Clear
4:45 AM 66.2 °F - 66.2 °F 100% 30.24 in 5.0 mi Calm Calm - 0.00 in   Clear
4:53 AM 66.9 °F - 66.0 °F 97% 30.22 in 1.2 mi Calm Calm - 0.00 in   Clear
4:56 AM 66.2 °F - 66.2 °F 100% 30.24 in 0.8 mi Calm Calm - N/A   Clear
5:10 AM 64.4 °F - 64.4 °F 100% 30.24 in 1.2 mi Calm Calm - N/A   Clear
5:14 AM 66.2 °F - 64.4 °F 94% 30.24 in 3.0 mi Calm Calm - N/A   Clear
5:23 AM 64.4 °F - 62.6 °F 94% 30.25 in 1.5 mi Calm Calm - N/A   Clear
5:25 AM 62.6 °F - 62.6 °F 100% 30.25 in 0.8 mi Calm Calm - N/A   Clear
5:43 AM 64.4 °F - 64.4 °F 100% 30.25 in 1.5 mi Calm Calm - N/A   Clear
5:53 AM 64.9 °F - 63.0 °F 93% 30.24 in 2.5 mi Calm Calm - N/A   Clear
6:09 AM 66.2 °F - 64.4 °F 94% 30.25 in 5.0 mi Calm Calm - N/A   Clear
6:53 AM 71.1 °F - 68.0 °F 90% 30.24 in 10.0 mi Calm Calm - N/A   Clear
7:53 AM 78.1 °F - 69.1 °F 74% 30.24 in 10.0 mi Calm Calm - N/A   Clear
8:53 AM 81.0 °F 83.3 °F 66.9 °F 62% 30.24 in 10.0 mi Variable 5.8 mph - N/A   Clear
9:53 AM 84.9 °F 87.6 °F 66.9 °F 55% 30.23 in 10.0 mi Variable 4.6 mph - N/A   Clear
10:53 AM 87.1 °F 89.2 °F 66.0 °F 49% 30.22 in 10.0 mi SSW 8.1 mph - N/A   Clear
11:53 AM 89.1 °F 91.3 °F 66.0 °F 46% 30.21 in 10.0 mi WSW 9.2 mph - N/A   Mostly Cloudy
12:53 PM 89.1 °F 91.0 °F 64.9 °F 45% 30.22 in 10.0 mi WSW 8.1 mph 16.1 mph N/A   Scattered Clouds
1:53 PM 89.1 °F 91.0 °F 64.9 °F 45% 30.20 in 10.0 mi Variable 5.8 mph - N/A   Mostly Cloudy
2:53 PM 89.1 °F 91.0 °F 64.9 °F 45% 30.18 in 10.0 mi SW 9.2 mph - N/A   Mostly Cloudy
3:53 PM 91.9 °F 94.5 °F 66.0 °F 42% 30.17 in 10.0 mi Variable 5.8 mph - N/A   Mostly Cloudy
4:53 PM 90.0 °F 91.7 °F 64.9 °F 43% 30.16 in 10.0 mi SW 9.2 mph - N/A   Mostly Cloudy
5:53 PM 88.0 °F 90.3 °F 66.0 °F 48% 30.15 in 10.0 mi Variable 5.8 mph - N/A   Partly Cloudy
6:53 PM 88.0 °F 90.7 °F 66.9 °F 49% 30.13 in 10.0 mi SW 4.6 mph - N/A   Partly Cloudy
7:53 PM 86.0 °F 88.8 °F 66.9 °F 53% 30.13 in 10.0 mi Variable 3.5 mph - N/A   Clear
8:53 PM 80.1 °F 82.7 °F 68.0 °F 67% 30.12 in 10.0 mi Calm Calm - N/A   Clear
9:53 PM 75.9 °F - 69.1 °F 79% 30.12 in 10.0 mi Calm Calm - N/A   Clear
10:53 PM 71.1 °F - 68.0 °F 90% 30.13 in 10.0 mi Calm Calm - N/A   Clear
11:53 PM 71.1 °F - 68.0 °F 90% 30.12 in 10.0 mi Calm Calm - N/A   Clear